Location: *
(35.5870°N, 4.6690°E)
Time: 02:35:11
(UTC+00:00)

Daily predictions for brighter satellites

Satellite Brightness Start Highest point End
(mag) Time Altitude Azimuth Time Altitude Azimuth Time Altitude Azimuth
ATLAS 2AS CENTAUR R/B 3.4 00:17:21 50° W 00:18:28 54° NW 00:26:22 10° NNE
SL-16 R/B 4.3 00:19:40 19° E 00:21:40 22° ENE 00:26:16 10° NNE
USA 238 DEB 4.0 00:14:57 10° NW 00:21:02 64° NW 00:21:02 64° NW
USA 238 4.0 00:15:03 10° NW 00:21:08 64° NW 00:21:08 64° NW
Cosmos 2369 Rocket 3.2 00:18:04 10° NNW 00:21:43 41° NNW 00:21:43 41° NNW
Cosmos 2315 Rocket 4.4 00:36:24 58° NNW 00:36:24 58° NNW 00:41:42 10° N
Cosmos 1656 Rocket 4.2 00:49:55 10° NNW 00:54:32 56° NNE 00:54:32 56° NNE
ADEOS II 4.4 01:00:02 10° ENE 01:02:23 13° E 01:03:09 13° E
Resurs 1-4 Rocket 3.0 00:58:51 10° NNE 01:03:02 44° ENE 01:03:02 44° ENE
NPP 4.4 00:59:14 10° NNE 01:03:37 45° ENE 01:03:37 45° ENE
NOSS 3-2 (C) 4.0 01:00:49 10° NW 01:08:38 72° WSW 01:08:49 72° SW
SJ 16-02 3.7 01:12:33 16° E 01:12:33 16° E 01:14:33 10° NE
Cosmos 2184 Rocket 4.0 01:06:44 10° N 01:12:48 79° NE 01:12:48 79° NE
SL-4 R/B 3.9 01:14:40 10° NNW 01:18:51 32° NNE 01:21:02 21° E
Cosmos 1943 Rocket 4.4 01:19:25 10° NW 01:20:20 14° WNW 01:20:20 14° WNW
CENTAUR R/B 3.1 01:30:38 10° NW 01:38:53 70° WSW 01:40:53 54° S
ARIANE 5 R/B 3.6 01:34:57 10° NNE 01:39:40 35° E 01:40:15 34° ESE
Cosmos 2074 Rocket 4.2 01:34:38 10° NNW 01:40:26 57° WNW 01:40:26 57° WNW
CBERS-1 4.0 01:37:51 10° NNE 01:42:37 77° NNE 01:42:37 77° NNE
H-2A R/B 3.4 01:45:43 35° NW 01:45:43 35° NW 01:48:25 10° NNW
CZ-2D R/B 2.2 01:38:37 10° N 01:43:49 69° NW 01:43:49 69° NW
Cosmos 923 Rocket 4.0 01:39:01 10° NNW 01:44:11 80° NNE 01:44:11 80° NNE
Meteor 2-9 Rocket 4.2 01:44:57 70° ESE 01:45:09 70° E 01:50:42 10° NNE
Cosmos 1975 4.4 01:48:03 31° NNW 01:48:03 31° NNW 01:50:22 10° N
Cosmos 2082 Rocket 4.4 01:44:32 12° SE 01:46:50 15° E 01:49:58 10° ENE
ATLAS 3B R/B 3.2 01:41:02 10° NW 01:45:58 42° W 01:45:58 42° W
Cosmos 1536 Rocket 4.1 01:45:32 10° N 01:49:10 57° NNE 01:49:10 57° NNE
Milstar 3 Cent rocket 3.8 01:53:32 18° ESE 01:53:32 18° ESE 01:55:16 10° ESE
RESURS DK-1 4.3 01:53:09 21° NW 01:53:09 21° NW 01:55:25 10° N
Nadezhda 1 Rocket 4.2 01:52:01 55° W 01:52:18 55° W 01:58:33 10° N
Landsat 5 4.0 01:59:08 57° E 01:59:21 57° ENE 02:03:36 10° N
AQUA 4.3 01:56:21 10° N 02:00:27 51° NW 02:00:27 51° NW
Cosmos 1937 Rocket 3.4 02:01:36 72° SE 02:01:56 75° ESE 02:07:11 10° NNE
Meteor 1-12 Rocket 4.3 02:01:45 65° S 02:02:43 88° E 02:08:46 10° N
SL-16 R/B 2.6 02:04:46 53° WSW 02:04:50 53° W 02:10:52 10° NNW
Cosmos 1842 4.2 02:01:43 10° N 02:04:24 43° N 02:04:24 43° N
Cosmos 1680 Rocket 3.3 02:02:52 10° NNW 02:08:10 79° WSW 02:08:25 77° SW
Atlas Centaur 2 2.9 02:08:24 50° SSW 02:09:34 55° S 02:16:16 10° E
Cosmos 1898 Rocket 3.5 02:10:31 62° W 02:10:48 64° WNW 02:16:06 10° N
Spot 4 Rocket 4.3 02:06:24 10° NNE 02:11:31 61° ESE 02:12:40 48° SSE
Meteor 1-21 4.1 02:09:23 10° N 02:15:11 81° W 02:16:30 55° S
SL-08 R/B 3.1 02:17:23 77° SW 02:17:37 80° WSW 02:22:23 10° NNW
Cosmos 1025 Rocket 3.4 02:13:37 10° NNW 02:17:19 54° NW 02:17:19 54° NW
Milstar 3 2.9 02:19:34 45° SSW 02:20:24 48° S 02:27:24 10° ESE
OAO 1 Rocket 4.3 02:24:12 63° SSW 02:24:48 69° SSE 02:30:05 10° E
IRS-1C 4.3 02:21:44 10° N 02:26:55 54° WNW 02:27:46 48° WSW
Cosmos 2341 Rocket 4.0 02:22:44 10° NNW 02:29:06 71° W 02:31:35 39° SSW
Okean 1 Rocket 3.3 02:29:15 53° WNW 02:29:15 53° WNW 02:33:34 10° N
IRS-1D 4.1 02:27:41 10° N 02:32:13 37° WNW 02:32:38 36° W
CZ-2C R/B 3.1 02:30:40 10° NNE 02:34:22 56° E 02:35:00 49° SE
Cosmos 2218 Rocket 4.1 02:28:14 10° N 02:34:28 74° E 02:39:32 16° SSE
Cosmos 1441 Rocket 4.0 02:35:12 36° SE 02:36:14 46° E 02:39:58 10° NNE
COSMOS 2406 3.6 02:35:45 40° WSW 02:37:06 48° WNW 02:42:35 10° N
GEOS 3 Rocket 4.3 02:32:23 10° NE 02:37:19 45° ESE 02:39:29 29° S
GPS 2-04 Rocket1 2.7 02:39:07 55° ESE 02:39:07 55° ESE 02:42:05 10° E
ADEOS II 2.1 02:37:16 10° N 02:42:28 64° WNW 02:44:05 42° SW
Aureole 2 Rocket 4.5 02:39:39 10° NNW 02:40:24 16° NW 02:40:24 16° NW
Aureole 3 2.9 02:43:36 67° NNW 02:43:36 67° NNW 02:46:39 10° N
Resurs 1-4 Rocket 3.7 02:39:49 10° NNW 02:43:22 19° WNW 02:44:07 18° WNW
Cosmos 1833 Rocket 2.6 02:47:10 35° SSW 02:49:42 87° ESE 02:55:22 10° NNE
SJ 16-02 2.2 02:49:33 32° W 02:49:58 33° WNW 02:53:56 10° N
Cosmos 1697 Rocket 4.2 02:47:11 10° N 02:52:27 38° ENE 02:57:40 10° SE
Meteosat 1 Rocket2 4.3 02:51:11 32° SW 02:53:39 43° S 02:58:38 10° ESE
CZ-4B R/B 2.2 02:55:44 34° NW 02:55:44 34° NW 02:57:49 10° NNW
Okean 1-7 Rocket 3.7 02:51:58 10° N 02:56:30 76° E 03:00:02 16° SSE
Cosmos 1544 Rocket 4.0 02:55:00 22° SSE 02:57:37 59° E 03:01:53 10° NNE
SL-4 R/B 3.8 02:54:25 10° WNW 03:02:16 12° SSE 03:02:32 10° SSE
SL-8 Rocket 4.2 02:55:57 10° NNW 03:02:04 54° W 03:05:59 22° SSW
Cosmos 1656 3.8 02:56:29 10° NNW 03:02:13 81° ENE 03:07:53 10° SSE
Cosmos 158 Rocket 4.0 02:59:49 10° NNW 03:04:47 55° WSW 03:08:41 17° S
SL-08 R/B 4.4 03:00:25 10° N 03:06:36 89° W 03:12:50 10° S
Cosmos 1455 Rocket 2.9 03:04:26 28° S 03:06:43 85° W 03:11:05 10° N
CBERS 1 LM4 rocket 4.3 03:05:05 10° N 03:09:52 82° WNW 03:13:00 22° SSW
Nadezhda 3 Rocket 4.3 03:03:39 10° S 03:09:57 71° E 03:16:14 10° N
H-2A R/B 3.1 03:08:37 10° NNE 03:13:05 60° E 03:17:04 13° S
Cosmos 1707 3.2 03:11:51 10° NNW 03:15:28 40° W 03:16:37 31° SW
Meteor 1-28 Rocket 3.3 03:12:42 10° SSE 03:16:29 77° ENE 03:20:16 10° N
ARIANE 5 R/B 3.8 03:14:28 10° NNW 03:18:33 24° WNW 03:20:35 19° W
PSLV R/B 3.4 03:22:31 13° WNW 03:24:52 56° NNE 03:27:38 10° E
Cosmos 1892 Rocket 3.7 03:20:50 10° NNW 03:25:05 52° W 03:28:42 14° SSW
Cosmos 2084 4.2 03:21:52 10° WNW 03:25:21 27° WSW 03:26:30 23° SW
Cosmos 1689 Rocket 3.6 03:30:29 20° W 03:30:29 20° W 03:32:28 10° NW
Cosmos 2082 Rocket 2.3 03:26:24 20° SW 03:30:17 59° WNW 03:35:51 10° NNE
CZ-3B R/B 4.3 03:30:16 10° S 03:31:07 10° S 03:32:05 10° SSE
Cosmos 1626 Rocket 4.2 03:30:39 10° N 03:35:05 60° E 03:39:29 10° SSE
BREEZE-M DEB (TANK) 4.3 03:38:34 15° SSW 03:38:34 15° SSW 03:40:06 10° S
SL-27 R/B 2.2 03:37:26 16° SSW 03:39:59 79° WNW 03:43:23 10° NNE
GRACE-FO 1 4.5 03:39:28 10° N 03:43:06 81° W 03:46:44 10° S
GRACE-FO 2 4.5 03:39:51 10° N 03:43:29 80° W 03:47:07 10° S
ADEOS 3.8 03:38:43 10° N 03:43:48 55° WNW 03:48:48 10° SSW
CZ-4B R/B 4.1 03:43:31 10° NNE 03:46:51 35° E 03:50:10 10° SSE
Meteor 1-22 Rocket 4.0 03:41:41 10° SSW 03:46:59 78° W 03:52:17 10° N
Cosmos 2369 3.7 03:43:44 10° NNW 03:49:16 58° WSW 03:54:47 10° S
TELKOM 3 4.0 03:48:52 16° W 03:50:19 31° NW 03:52:18 10° NNE
Cosmos 1934 Rocket 4.5 03:44:10 10° N 03:50:23 66° E 03:56:27 10° SSE
Cosmos 1766 3.7 03:48:34 12° SSW 03:51:56 42° W 03:55:39 10° N
Cosmos 389 Rocket 2.7 03:49:01 10° N 03:52:40 79° E 03:56:16 10° S
Cosmos 2360 4.3 03:50:42 10° NNW 03:56:24 85° ENE 04:02:05 10° SSE
Atlas Centaur 2 2.8 03:51:33 10° W 03:58:50 53° S 04:04:39 10° ESE
Cosmos 1437 Rocket 4.1 03:59:40 10° N 04:03:37 46° E 04:07:34 10° SSE
Cosmos 1048 Rocket 4.0 04:04:09 10° NNW 04:09:10 56° WSW 04:14:09 10° S
PSLV R/B 4.5 04:06:34 10° N 04:10:14 30° WNW 04:13:55 10° SW
OAO 1 Rocket 4.5 04:05:09 10° W 04:10:28 85° S 04:15:47 10° E
Cosmos 44 4.1 04:08:57 10° WNW 04:12:31 24° WSW 04:15:58 10° SSW
Cosmos 1535 Rocket 4.5 04:08:36 10° N 04:14:46 75° W 04:20:59 10° S
Meteor 1-4 Rocket 2.6 04:11:29 10° NNW 04:15:06 58° W 04:18:46 10° S
IDEFIX/ARIANE 42P 3.1 04:10:29 10° N 04:15:21 42° WNW 04:20:10 10° SW
